Regional Weather Roundup
Issued by NWS

Home | Current Version | Previous Version | Text Only | Print | Product List | Glossary Off
Versions: 1 2 3 4 5 6 7 8 9 10 11 12 13 14 15 16 17 18 19 20 21 22 23 24 25 26 27 28 29 30 31 32 33 34 35 36 37 38 39 40 41 42 43 44 45 46 47 48 49 50

990
ASUS45 KSLC 070410
RWRUT

UTAH REGIONAL WEATHER ROUNDUP
NATIONAL WEATHER SERVICE SALT LAKE CITY UT
900 PM MST SAT FEB 06 2016

UTZ001>011-023>025-070500-

NORTHERN UTAH

CITY           SKY/WX    TMP DP  RH WIND       PRES   REMARKS
BRIGHAM CITY     N/A     19  17  90 CALM      30.47F
HILL AFB       PTCLDY    28  14  54 SE8       30.44F WCI  20
LOGAN          MOCLDY    22  18  85 S3        30.45F
OGDEN          MOCLDY    30  23  75 CALM      30.45S
PROVO AIRPORT  MOCLDY    19  14  79 CALM      30.48S
SALT LAKE CITY PTCLDY    30  24  78 S3        30.46S
VERNAL         CLOUDY    11   6  81 W3        30.45S
WENDOVER       CLEAR     27  19  74 CALM      30.46S
HEBER CITY     PTCLDY    12   9  85 CALM      30.44S
WEST JORDAN    CLEAR     27  21  80 SW5       30.46S WCI  21

$$

UTZ012>022-026-027-070500-

SOUTHERN/CENTRAL UTAH

CITY           SKY/WX    TMP DP  RH WIND       PRES   REMARKS
BLANDING       PTCLDY    20  15  82 N8        30.49S WCI  10
BRYCE CANYON   CLEAR     15   7  70 W8        30.44R WCI   4
CEDAR CITY     PTCLDY    14  11  87 N5        30.42R WCI   6
DELTA          MOCLDY    11   9  92 CALM      30.48R
HANKSVILLE     MOCLDY    14  12  92 CALM      30.56R
MILFORD        MOCLDY     5   3  91 S6        30.45S WCI  -6
MOAB/CYNLANDS  MOCLDY     9   8  96 W3        30.51R
PRICE          PTCLDY    17  11  77 CALM      30.44R
ST GEORGE      PTCLDY    45  27  49 CALM      30.41R
KANAB          CLEAR     32  27  80 E6        30.45R WCI  26

$$

REGIONAL REPORTS     COLORADO/ARIZONA

CITY           SKY/WX    TMP DP  RH WIND       PRES   REMARKS
CRAIG, CO      CLOUDY     3  -2  79 CALM      30.41R
GRAND JUNCTION CLOUDY    11   8  88 CALM      30.49S
RIFLE          CLOUDY    15   8  73 CALM      30.48R
MONTROSE       CLOUDY    13   7  77 S9        30.49R WCI   1
CORTEZ         CLOUDY    17  12  80 E9        30.42R WCI   6
PAGE, AZ       CLEAR     30  21  69 SE3       30.45R
GRAND CANYON   CLEAR     26  15  63 CALM      30.39S
KINGMAN        CLEAR     41  23  48 E12       30.33R
FLAGSTAFF      CLEAR     23  15  71 CALM      30.40S

$$

REGIONAL REPORTS    NEVADA/IDAHO/WYOMING

CITY           SKY/WX    TMP DP  RH WIND       PRES   REMARKS
LAS VEGAS, NV  CLEAR     51  26  37 S6        30.29S
ELY            PTCLDY    13   7  77 S15       30.44R WCI  -3
ELKO           CLEAR     17  11  77 CALM      30.47R
POCATELLO, ID  CLOUDY    36  24  62 S17       30.38F WCI  26
BURLEY         MOCLDY    36  27  69 SW10      30.39R WCI  28
EVANSTON, WY   CLOUDY    24  11  57 SW6       30.40R WCI  17
ROCK SPRINGS   CLOUDY    28  18  66 W26G38    30.30S WCI  13

$$




USA.gov is the U.S. government's official web portal to all federal, state and local government web resources and services.